ONEWEB-0582, 54649

Orbit data source: Space-Track

ONEWEB-0582, 54649 is a payload satellite owned by One Web (NAA) (UK) in LEO that was launched on Thu, 08 Dec 2022 UTC via an FALCON 9 launch vehicle from the Air Force Eastern Test Range (AFETR). Payload-class satellites include a variety of spacecraft equipped with specific instruments for various scientific and technological missions. These include communications satellites like Starlink; space stations such as the ISS; scientific satellites like the Hubble; Earth observation satellites from companies like Planet Labs, Umbra, and HawkEye 360; GPS; miniature CubeSats for education and research; and military/defense satellites.

Loading next visibility...
Identifier
54649, 2022-166H
Orbit
LEO
Country
Flag of UKUK
Related business
Manufacturer
One Web
Mission
Operational Commercial Communications
Bus & Motor
ARROW, Unknown motor
Mass
148 kg wet, ~140 kg dry
Launch date (UTC)
2022-12-08 (4 years ago)
Launch vehicle
FALCON 9
Launch site
Air Force Eastern Test Range (AFETR)
Object type
Payload
Rocket body
Debris
Shape & HBR
Trap Box + 2 Pan, 6.7 m
Radar Cross Section
3.464 m², Large (>1 m²)

Expand to show TLE details & history
Last TLE update: 2 days ago

TLE from 2 days ago
0 ONEWEB-0582
1 54649U 22166H   26171.23477590  .00000034  00000-0  51786-4 0  9997
2 54649  87.9252 243.3678 0002102  86.4045 273.7330 13.21826862171922
Epoch: 2026-06-20T05:38Z
TLE epoch observation values (Epoch: 2026-06-20T05:38:04.637Z)
Latitude
0.00003°
Longitude
-109.60384°
Altitude
1,180.552 km
Speed
7.263 km/s
True Right ascension
16h 13m 28s
True Declination
0° 00' 00"
Sunlit
Object was in full shadow at epoch
Visualization orbit readout
Latitude
Unknown
Longitude
Unknown
Altitude
Unknown
Speed
Unknown
Apparent Right ascension
Unknown
Apparent Declination
Unknown
Sunlit
N/A
Visualization observer readout
Local Sidereal Time
21:30:50
Azimuth
Unknown
Elevation
Unknown
Doppler factor
Unknown
Orbital elements
Apogee altitude
1,176.44 km
Perigee altitude
1,173.265 km
Semi-major axis
7,552.99 km
Eccentricity
0.00021
Inclination
87.9252°
RAAN
243.3678°
Arg. of periapsis
86.4045°
True anomaly
273.70896°
Mean anomaly
273.733°
Eccentric anomaly
273.72098°
Mean motion
3.30647 °/min
Orbital period
108.88 mins
BSTAR
0.000051786
Loading maneuver chart data...
Computing Atmospheric mass density...
Loading historical data...
Loading historical data...
Loading historical data...
Loading historical data...
Loading historical data...
Loading historical data...
Loading historical data...

Documentation

Showing up to 5 results
|